Location: Newark
(47.4333°N, 19.2500°E)
Time: 15:13:30
(UTC+00:00)

ISS - Pass Details

Date: 11 March 2021
Orbit: 418 x 422 km, 51.6° (Epoch: 17 April)

Event Time Altitude Azimuth Distance (km) Brightness Sun altitude
Exits shadow 02:27:25 19° 104° (ESE) 1,064 -1.2 -26.6°
Drops below altitude 10° 02:28:30 10° 107° (ESE) 1,492 -0.4 -26.4°
Sets 02:30:36 0° 109° (ESE) 2,354 0.7 -26.1°
